This is the latest recevied weather packets stored in our database for station/object JF7BTK-10. If no packets are shown the sender has not sent any weather packets the latest 10 day(s).
| Time | Temp. | Humidity | Pressure | Rain* | Wind** | Luminosity | Snow |
|---|---|---|---|---|---|---|---|
| 1777916800 | 8.33° C | 69% | 1004.6 hPa | 0.51 mm | - | - | - |
| 1777915900 | 8.33° C | 70% | 1003.9 hPa | 0.25 mm | - | - | - |
| 1777915580 | 8.33° C | 71% | 1003.7 hPa | 0.25 mm | - | - | - |
| 1777915000 | 8.33° C | 70% | 1003.5 hPa | 0.51 mm | - | - | - |
| 1777914680 | 8.33° C | 70% | 1003.5 hPa | 0.51 mm | - | - | - |
| 1777914100 | 8.33° C | 72% | 1003.5 hPa | 0.25 mm | - | - | - |
| 1777913480 | 8.33° C | 72% | 1003.2 hPa | 0.25 mm | - | - | - |
| 1777913200 | 8.33° C | 73% | 1002.9 hPa | 0.25 mm | - | - | - |
| 1777912880 | 8.33° C | 75% | 1002.7 hPa | 0.25 mm | - | - | - |
| 1777911399 | 8.33° C | 72% | 1002.6 hPa | 0 mm | - | - | - |
| 1777911079 | 8.33° C | 73% | 1002.3 hPa | 0 mm | - | - | - |
| 1777910781 | 8.33° C | 76% | 1002.1 hPa | 0 mm | - | - | - |
| 1777910499 | 8.33° C | 78% | 1001.9 hPa | 0.25 mm | - | - | - |
| 1777909599 | 8.33° C | 78% | 1001.7 hPa | 0.51 mm | - | - | - |
| 1777909279 | 8.33° C | 78% | 1001.7 hPa | 0.51 mm | - | - | - |
| 1777908700 | 8.33° C | 78% | 1001.5 hPa | 0.76 mm | - | - | - |
| 1777907799 | 8.33° C | 80% | 1000.7 hPa | 0.76 mm | - | - | - |
| 1777906899 | 7.78° C | 82% | 1000.2 hPa | 0.51 mm | - | - | - |
| 1777905980 | 7.78° C | 82% | 999.9 hPa | 0.25 mm | - | - | - |
| 1777905100 | 8.33° C | 82% | 999.3 hPa | 0.25 mm | - | - | - |
| 1777904199 | 8.33° C | 79% | 999 hPa | 0.76 mm | - | - | - |
| 1777903300 | 8.33° C | 76% | 998.3 hPa | 1.27 mm | - | - | - |
| 1777902400 | 8.33° C | 80% | 997.8 hPa | 1.27 mm | - | - | - |
| 1777901500 | 8.33° C | 80% | 997.6 hPa | 1.27 mm | - | - | - |
| 1777900880 | 8.33° C | 81% | 997.4 hPa | 0.76 mm | - | - | - |
* Rain latest hour (hover to see other rain measurements)
** Current wind speed in m/s (hover to see current wind gust speed)